Home > Weather > Escuintla > Past weeks

Flag for Guatemala Past Weather in Escuintla, Guatemala — Yesterday and Last 2 Weeks

Now
68 °F

Passing clouds.


Feels Like: 68 °F
Forecast: 71 / 88 °F
Wind: 7 mph from South

Location: Guatemala Aeropuertola Aurora

Current Time: May 28, 2016 at 2:10:27 AM

Latest Report: May 28, 2016 at 1:00 AM


Visibility: 4 mi

Pressure: 30.21 "Hg

Humidity: 88%

Dew Point: 64 °F

Location of EscuintlaLocation

Past Weather in Escuintla — Graph

°F

Escuintla Temperature Yesterday

Maximum temperature yesterday: 79 °F (at 12:00 PM)
Minimum temperature yesterday: 64 °F (at 4:00 AM)
Average temperature yesterday: 71 °F

High & Low Weather Summary for the Past Weeks

 TemperatureHumidityPressure
High86 °F (May 15, 2:00 PM)100% (May 18, 3:00 AM)30.36 "Hg (May 18, 3:00 AM)
Low61 °F (May 16, 6:00 AM)35% (May 15, 2:00 PM)30.12 "Hg (May 27, 4:00 PM)
Average72 °F75%30.27 "Hg
* Reported May 13 12:00 AM — May 28 12:00 AM, Escuintla, Weather by CustomWeather, © 2016

Note: Actual official high and low records may vary slightly from our data, if they occured in-between our weather recording intervals... More about our weather records

Advertising

Escuintla Weather History for the Previous 24 Hours

Scroll right to see more
 ConditionsComfort  
Time TempWeatherWind HumidityBarometerVisibility
12:00 AM
Sat, May 28
68 °FPassing clouds.5 mph83%30.24 "Hg4 mi
11:00 PM
Fri, May 27
68 °FPassing clouds.7 mph88%30.24 "Hg4 mi
10:00 PM68 °FPassing clouds.5 mph88%30.24 "Hg4 mi
9:00 PM70 °FPassing clouds.9 mph83%30.21 "Hg4 mi
8:00 PM70 °FPassing clouds.7 mph83%30.21 "Hg4 mi
7:00 PM70 °FPartly cloudy.5 mph83%30.18 "Hg4 mi
6:00 PM72 °FDrizzle. Partly sunny.9 mph83%30.15 "Hg4 mi
5:00 PM75 °FScattered clouds.14 mph69%30.12 "HgN/A
4:00 PM77 °FScattered clouds.14 mph65%30.12 "HgN/A
3:00 PM79 °FScattered clouds.14 mph61%30.15 "HgN/A
2:00 PM79 °FScattered clouds.12 mph58%30.15 "HgN/A
1:00 PM77 °FScattered clouds.12 mph65%30.18 "HgN/A
12:00 PM79 °FScattered clouds.7 mph51%30.21 "Hg5 mi
11:00 AM77 °FScattered clouds.N/A57%30.24 "Hg5 mi
10:00 AM75 °FScattered clouds.7 mph57%30.24 "Hg5 mi
9:00 AM72 °FPartly sunny.9 mph73%30.27 "Hg5 mi
8:00 AM68 °FPartly sunny.9 mph78%30.27 "Hg5 mi
7:00 AM66 °FPartly sunny.9 mph78%30.15 "Hg5 mi
6:00 AM64 °FSunny.7 mph88%30.21 "Hg10 mi
5:00 AM64 °FPassing clouds.7 mph88%30.21 "HgN/A
4:00 AM64 °FOvercast.5 mph94%30.21 "HgN/A
3:00 AM66 °FPassing clouds.9 mph88%30.21 "HgN/A
2:00 AM66 °FPassing clouds.5 mph78%30.21 "HgN/A
Weather by CustomWeather, © 2016

See weather overviewHow to use our weather pages